| time (UTC) | temp F | wind direction | speed MPH | gust MPH | rain 1hr in | rain 24hr in | rain mn in | humidity % | barometer mb |
| 20260503004739 | 48 | 300 | 0.0 | 2.0 | 0.00 | 0.00 | 0.00 | 85 | 1017.2 |
| 20260503004237 | 49 | 300 | 0.0 | 2.0 | 0.00 | 0.00 | 0.00 | 85 | 1017.2 |
| 20260503004017 | 49 | 300 | 0.0 | 2.0 | 0.00 | 0.00 | 0.00 | 85 | 1017.2 |
| 20260503003231 | 49 | 300 | 0.0 | 1.0 | 0.00 | 0.00 | 0.00 | 85 | 1017.3 |
| 20260503003003 | 49 | 300 | 0.0 | 0.0 | 0.00 | 0.00 | 0.00 | 85 | 1017.3 |
| 20260503002205 | 49 | 300 | 0.0 | 0.0 | 0.00 | 0.00 | 0.00 | 85 | 1017.3 |
| 20260503001940 | 49 | 300 | 0.0 | 2.0 | 0.00 | 0.00 | 0.00 | 85 | 1017.4 |
| 20260503001435 | 49 | 300 | 0.0 | 2.0 | 0.00 | 0.00 | 0.00 | 85 | 1017.5 |
| 20260503000703 | 49 | 300 | 0.0 | 2.0 | 0.00 | 0.00 | 0.00 | 84 | 1017.5 |
| 20260503000203 | 50 | 300 | 0.0 | 2.0 | 0.00 | 0.00 | 0.00 | 84 | 1017.6 |
| 20260502235703 | 50 | 300 | 0.0 | 2.0 | 0.00 | 0.00 | 0.00 | 84 | 1017.6 |
| 20260502235159 | 50 | 300 | 0.0 | 2.0 | 0.00 | 0.00 | 0.00 | 84 | 1017.5 |
| 20260502234649 | 50 | 300 | 0.0 | 2.0 | 0.00 | 0.00 | 0.00 | 84 | 1017.7 |
| 20260502234147 | 50 | 300 | 0.0 | 2.0 | 0.00 | 0.00 | 0.00 | 84 | 1017.7 |
| 20260502233645 | 50 | 308 | 0.0 | 2.0 | 0.00 | 0.00 | 0.00 | 84 | 1017.8 |
| 20260502233141 | 50 | 308 | 0.0 | 2.0 | 0.00 | 0.00 | 0.00 | 84 | 1017.8 |
| 20260502232635 | 50 | 307 | 0.0 | 2.0 | 0.00 | 0.00 | 0.00 | 84 | 1017.8 |
| 20260502232133 | 51 | 307 | 0.0 | 2.0 | 0.00 | 0.00 | 0.00 | 84 | 1017.9 |
| 20260502231631 | 51 | 307 | 0.0 | 2.0 | 0.00 | 0.00 | 0.00 | 84 | 1018.0 |
| 20260502231129 | 51 | 307 | 0.0 | 2.0 | 0.00 | 0.00 | 0.00 | 84 | 1018.0 |
| 20260502230631 | 51 | 307 | 0.0 | 2.0 | 0.00 | 0.00 | 0.00 | 84 | 1018.1 |
| 20260502230402 | 51 | 307 | 0.0 | 1.0 | 0.00 | 0.00 | 0.00 | 84 | 1018.2 |
| 20260502225621 | 51 | 307 | 0.0 | 2.0 | 0.00 | 0.00 | 0.00 | 84 | 1018.2 |
| 20260502225118 | 51 | 307 | 0.0 | 2.0 | 0.00 | 0.00 | 0.00 | 84 | 1018.2 |
| 20260502224613 | 51 | 307 | 0.0 | 2.0 | 0.00 | 0.00 | 0.00 | 84 | 1018.3 |
| 20260502224108 | 51 | 307 | 0.0 | 2.0 | 0.00 | 0.00 | 0.00 | 84 | 1018.4 |
| 20260502223602 | 51 | 307 | 0.0 | 2.0 | 0.00 | 0.00 | 0.00 | 83 | 1018.3 |
| 20260502223103 | 51 | 307 | 0.0 | 2.0 | 0.00 | 0.00 | 0.00 | 83 | 1018.4 |
| 20260502222601 | 51 | 307 | 0.0 | 2.0 | 0.00 | 0.00 | 0.00 | 83 | 1018.4 |
| 20260502222054 | 51 | 307 | 0.0 | 2.0 | 0.00 | 0.00 | 0.00 | 83 | 1018.4 |
| 20260502221533 | 52 | 307 | 0.0 | 2.0 | 0.00 | 0.00 | 0.00 | 82 | 1018.4 |
| 20260502221029 | 52 | 307 | 0.0 | 2.0 | 0.00 | 0.00 | 0.00 | 82 | 1018.5 |
| 20260502220528 | 52 | 307 | 0.0 | 2.0 | 0.00 | 0.00 | 0.00 | 82 | 1018.5 |
| 20260502220030 | 52 | 307 | 0.0 | 2.0 | 0.00 | 0.00 | 0.00 | 82 | 1018.5 |
| 20260502215532 | 52 | 305 | 0.0 | 2.0 | 0.00 | 0.00 | 0.00 | 81 | 1018.5 |
| 20260502215029 | 52 | 303 | 0.0 | 2.0 | 0.00 | 0.00 | 0.00 | 81 | 1018.5 |
| 20260502214519 | 53 | 300 | 0.0 | 2.0 | 0.00 | 0.00 | 0.00 | 81 | 1018.5 |
| 20260502214002 | 53 | 300 | 0.0 | 2.0 | 0.00 | 0.00 | 0.00 | 81 | 1018.5 |
| 20260502213448 | 53 | 300 | 0.0 | 2.0 | 0.00 | 0.00 | 0.00 | 80 | 1018.5 |
| 20260502212950 | 53 | 300 | 0.0 | 2.0 | 0.00 | 0.00 | 0.00 | 80 | 1018.5 |
| 20260502212449 | 53 | 300 | 0.0 | 2.0 | 0.00 | 0.00 | 0.00 | 80 | 1018.5 |
| 20260502212234 | 53 | 300 | 0.0 | 2.0 | 0.00 | 0.00 | 0.00 | 79 | 1018.5 |
| 20260502211449 | 53 | 300 | 0.0 | 2.0 | 0.00 | 0.00 | 0.00 | 78 | 1018.6 |
| 20260502210943 | 54 | 300 | 0.0 | 2.0 | 0.00 | 0.00 | 0.00 | 78 | 1018.6 |
| 20260502210725 | 54 | 300 | 0.0 | 2.0 | 0.00 | 0.00 | 0.00 | 77 | 1018.7 |
| 20260502205930 | 55 | 300 | 0.0 | 2.0 | 0.00 | 0.00 | 0.00 | 76 | 1018.7 |
| 20260502205429 | 55 | 300 | 0.0 | 1.0 | 0.00 | 0.00 | 0.00 | 76 | 1018.8 |
| 20260502204929 | 55 | 300 | 0.0 | 2.0 | 0.00 | 0.00 | 0.00 | 77 | 1018.8 |
| 20260502204710 | 55 | 319 | 0.0 | 2.0 | 0.00 | 0.00 | 0.00 | 77 | 1018.7 |
| 20260502203929 | 55 | 319 | 0.0 | 1.0 | 0.00 | 0.00 | 0.00 | 76 | 1018.8 |
| 20260502203421 | 55 | 319 | 0.0 | 2.0 | 0.00 | 0.00 | 0.00 | 75 | 1018.9 |
| 20260502202902 | 55 | 319 | 0.0 | 2.0 | 0.00 | 0.00 | 0.00 | 75 | 1018.9 |
| 20260502202353 | 56 | 319 | 0.0 | 2.0 | 0.00 | 0.00 | 0.00 | 74 | 1018.9 |
| 20260502201853 | 56 | 319 | 0.0 | 2.0 | 0.00 | 0.00 | 0.00 | 74 | 1018.9 |
| 20260502201348 | 56 | 319 | 0.0 | 2.0 | 0.00 | 0.00 | 0.00 | 73 | 1019.0 |
| 20260502200841 | 56 | 319 | 0.0 | 2.0 | 0.00 | 0.00 | 0.00 | 73 | 1019.0 |
| 20260502200329 | 57 | 319 | 0.0 | 1.0 | 0.00 | 0.00 | 0.00 | 73 | 1019.0 |
| 20260502195822 | 57 | 319 | 0.0 | 2.0 | 0.00 | 0.00 | 0.00 | 72 | 1019.0 |
| 20260502195304 | 57 | 319 | 0.0 | 2.0 | 0.00 | 0.00 | 0.00 | 71 | 1018.9 |
| 20260502195044 | 58 | 319 | 0.0 | 2.0 | 0.00 | 0.00 | 0.00 | 70 | 1019.0 |
| 20260502194242 | 58 | 319 | 0.0 | 2.0 | 0.00 | 0.00 | 0.00 | 69 | 1019.0 |
| 20260502193745 | 58 | 319 | 0.0 | 2.0 | 0.00 | 0.00 | 0.00 | 68 | 1019.0 |
| 20260502193232 | 58 | 319 | 1.0 | 2.0 | 0.00 | 0.00 | 0.00 | 68 | 1019.0 |
| 20260502192723 | 59 | 319 | 1.0 | 2.0 | 0.00 | 0.00 | 0.00 | 68 | 1019.0 |
| 20260502192217 | 59 | 325 | 1.0 | 2.0 | 0.00 | 0.00 | 0.00 | 67 | 1019.0 |
| 20260502191714 | 59 | 322 | 1.0 | 2.0 | 0.00 | 0.00 | 0.00 | 69 | 1018.9 |
| 20260502191213 | 59 | 319 | 0.0 | 2.0 | 0.00 | 0.00 | 0.00 | 68 | 1018.9 |
| 20260502190715 | 59 | 275 | 0.0 | 2.0 | 0.00 | 0.00 | 0.00 | 68 | 1018.8 |
| 20260502190204 | 60 | 275 | 0.0 | 2.0 | 0.00 | 0.00 | 0.00 | 67 | 1018.9 |
| 20260502185950 | 60 | 269 | 0.0 | 2.0 | 0.00 | 0.00 | 0.00 | 67 | 1018.8 |
| 20260502185228 | 61 | 234 | 0.0 | 0.0 | 0.00 | 0.00 | 0.00 | 65 | 1018.8 |
| 20260502185221 | 60 | 235 | 0.0 | 2.0 | 0.00 | 0.00 | 0.00 | 66 | 1018.7 |
| 20260502184204 | 61 | 234 | 0.0 | 2.0 | 0.00 | 0.00 | 0.00 | 64 | 1018.7 |
| 20260502183702 | 62 | 234 | 0.0 | 2.0 | 0.00 | 0.00 | 0.00 | 63 | 1018.7 |
| 20260502183227 | 63 | 234 | 1.0 | 2.0 | 0.00 | 0.00 | 0.00 | 61 | 1018.8 |
| 20260502183219 | 62 | 234 | 0.0 | 2.0 | 0.00 | 0.00 | 0.00 | 63 | 1018.7 |
| 20260502182203 | 64 | 234 | 1.0 | 1.0 | 0.00 | 0.00 | 0.00 | 60 | 1018.7 |
| 20260502181655 | 65 | 236 | 1.0 | 2.0 | 0.00 | 0.00 | 0.00 | 58 | 1018.7 |
| 20260502181145 | 65 | 236 | 1.0 | 2.0 | 0.00 | 0.00 | 0.00 | 56 | 1018.7 |
| 20260502180642 | 66 | 217 | 1.0 | 2.0 | 0.00 | 0.00 | 0.00 | 55 | 1018.7 |
| 20260502180138 | 67 | 223 | 1.0 | 3.0 | 0.00 | 0.00 | 0.00 | 54 | 1018.8 |
| 20260502170135 | 73 | 166 | 1.0 | 5.0 | 0.00 | 0.00 | 0.00 | 45 | 1019.2 |
| 20260502170127 | 73 | 182 | 1.0 | 5.0 | 0.00 | 0.00 | 0.00 | 45 | 1019.1 |
| 20260502164104 | 74 | 175 | 2.0 | 8.0 | 0.00 | 0.00 | 0.00 | 44 | 1019.3 |
| 20260502163603 | 74 | 143 | 2.0 | 8.0 | 0.00 | 0.00 | 0.00 | 44 | 1019.4 |
| 20260502163102 | 74 | 180 | 1.0 | 5.0 | 0.00 | 0.00 | 0.00 | 44 | 1019.4 |
| 20260502162848 | 74 | 177 | 2.0 | 7.0 | 0.00 | 0.00 | 0.00 | 45 | 1019.5 |
| 20260502162104 | 74 | 183 | 3.0 | 7.0 | 0.00 | 0.00 | 0.00 | 44 | 1019.5 |
| 20260502161602 | 75 | 219 | 2.0 | 7.0 | 0.00 | 0.00 | 0.00 | 43 | 1019.5 |
| 20260502161106 | 75 | 179 | 2.0 | 7.0 | 0.00 | 0.00 | 0.00 | 43 | 1019.5 |
| 20260502160844 | 75 | 177 | 2.0 | 8.0 | 0.00 | 0.00 | 0.00 | 43 | 1019.7 |
| 20260502160118 | 75 | 161 | 3.0 | 10.0 | 0.00 | 0.00 | 0.00 | 43 | 1019.8 |
| 20260502152315 | 76 | 222 | 3.0 | 10.0 | 0.00 | 0.00 | 0.00 | 42 | 1020.2 |
| 20260502151815 | 77 | 227 | 5.0 | 11.0 | 0.00 | 0.00 | 0.00 | 42 | 1020.4 |
| 20260502151032 | 76 | 203 | 5.0 | 11.0 | 0.00 | 0.00 | 0.00 | 42 | 1020.3 |
| 20260502150535 | 76 | 240 | 3.0 | 7.0 | 0.00 | 0.00 | 0.00 | 43 | 1020.4 |
| 20260502130514 | 78 | 146 | 3.0 | 9.0 | 0.00 | 0.00 | 0.00 | 42 | 1021.7 |
| 20260502123507 | 78 | 147 | 4.0 | 11.0 | 0.00 | 0.00 | 0.00 | 44 | 1022.2 |
| 20260502123004 | 77 | 86 | 5.0 | 12.0 | 0.00 | 0.00 | 0.00 | 43 | 1022.1 |
| 20260502122501 | 78 | 116 | 3.0 | 12.0 | 0.00 | 0.00 | 0.00 | 41 | 1022.2 |
| 20260502122004 | 76 | 130 | 2.0 | 6.0 | 0.00 | 0.00 | 0.00 | 43 | 1022.2 |
| 20260502121503 | 74 | 184 | 3.0 | 9.0 | 0.00 | 0.00 | 0.00 | 43 | 1022.1 |
| 20260502121002 | 76 | 150 | 6.0 | 13.0 | 0.00 | 0.00 | 0.00 | 42 | 1022.3 |
| 20260502120502 | 77 | 92 | 6.0 | 14.0 | 0.00 | 0.00 | 0.00 | 44 | 1022.5 |
| 20260502115501 | 76 | 45 | 6.0 | 10.0 | 0.00 | 0.00 | 0.00 | 44 | 1022.5 |
| 20260502115006 | 76 | 73 | 6.0 | 11.0 | 0.00 | 0.00 | 0.00 | 43 | 1022.5 |
| 20260502114502 | 76 | 80 | 6.0 | 11.0 | 0.00 | 0.00 | 0.00 | 43 | 1022.5 |
| 20260502114001 | 77 | 84 | 4.0 | 10.0 | 0.00 | 0.00 | 0.00 | 43 | 1022.7 |
| 20260502113503 | 76 | 105 | 6.0 | 14.0 | 0.00 | 0.00 | 0.00 | 46 | 1022.6 |
| 20260502113001 | 77 | 144 | 7.0 | 14.0 | 0.00 | 0.00 | 0.00 | 44 | 1022.7 |
| 20260502112744 | 76 | 90 | 3.0 | 9.0 | 0.00 | 0.00 | 0.00 | 42 | 1022.7 |
| 20260502111944 | 77 | 161 | 3.0 | 9.0 | 0.00 | 0.00 | 0.00 | 43 | 1023.0 |
| 20260502111444 | 75 | 71 | 5.0 | 9.0 | 0.00 | 0.00 | 0.00 | 45 | 1022.8 |
| 20260502110937 | 75 | 115 | 5.0 | 9.0 | 0.00 | 0.00 | 0.00 | 44 | 1023.1 |
| 20260502110720 | 75 | 82 | 4.0 | 9.0 | 0.00 | 0.00 | 0.00 | 44 | 1023.1 |
| 20260502110206 | 75 | 78 | 3.0 | 8.0 | 0.00 | 0.00 | 0.00 | 44 | 1023.1 |
| 20260502105420 | 76 | 65 | 4.0 | 10.0 | 0.00 | 0.00 | 0.00 | 45 | 1023.2 |
| 20260502104914 | 75 | 131 | 3.0 | 12.0 | 0.00 | 0.00 | 0.00 | 45 | 1023.3 |
| 20260502104403 | 74 | 95 | 3.0 | 12.0 | 0.00 | 0.00 | 0.00 | 46 | 1023.3 |
| 20260502103902 | 73 | 199 | 4.0 | 11.0 | 0.00 | 0.00 | 0.00 | 45 | 1023.3 |
| 20260502103357 | 74 | 140 | 3.0 | 11.0 | 0.00 | 0.00 | 0.00 | 45 | 1023.4 |
| 20260502102854 | 74 | 122 | 2.0 | 7.0 | 0.00 | 0.00 | 0.00 | 45 | 1023.4 |
| 20260502102355 | 73 | 106 | 2.0 | 7.0 | 0.00 | 0.00 | 0.00 | 47 | 1023.4 |
| 20260502101852 | 72 | 138 | 3.0 | 7.0 | 0.00 | 0.00 | 0.00 | 45 | 1023.4 |
| 20260502101353 | 73 | 86 | 3.0 | 6.0 | 0.00 | 0.00 | 0.00 | 47 | 1023.5 |
| 20260502100851 | 74 | 348 | 3.0 | 8.0 | 0.00 | 0.00 | 0.00 | 46 | 1023.7 |
| 20260502100351 | 73 | 98 | 3.0 | 8.0 | 0.00 | 0.00 | 0.00 | 48 | 1023.7 |
| 20260502091352 | 71 | 55 | 3.0 | 8.0 | 0.00 | 0.00 | 0.00 | 49 | 1024.2 |
| 20260502090834 | 70 | 286 | 2.0 | 8.0 | 0.00 | 0.00 | 0.00 | 50 | 1024.3 |
| 20260502090618 | 70 | 150 | 1.0 | 6.0 | 0.00 | 0.00 | 0.00 | 50 | 1024.2 |
| 20260502090116 | 70 | 144 | 1.0 | 6.0 | 0.00 | 0.00 | 0.00 | 49 | 1024.3 |
| 20260502071247 | 63 | 90 | 0.0 | 2.0 | 0.00 | 0.00 | 0.00 | 60 | 1024.4 |
| 20260502070747 | 62 | 108 | 0.0 | 2.0 | 0.00 | 0.00 | 0.00 | 62 | 1024.4 |
| 20260502070246 | 62 | 150 | 0.0 | 2.0 | 0.00 | 0.00 | 0.00 | 67 | 1024.3 |
| 20260502065744 | 62 | 128 | 1.0 | 2.0 | 0.00 | 0.00 | 0.00 | 65 | 1024.4 |
| 20260502065239 | 58 | 235 | 1.0 | 2.0 | 0.00 | 0.00 | 0.00 | 67 | 1024.1 |
| 20260502065233 | 60 | 160 | 1.0 | 2.0 | 0.00 | 0.00 | 0.00 | 67 | 1024.2 |
| 20260502064204 | 58 | 193 | 1.0 | 2.0 | 0.00 | 0.00 | 0.00 | 69 | 1024.1 |
| 20260502063702 | 57 | 215 | 0.0 | 2.0 | 0.00 | 0.00 | 0.00 | 71 | 1024.1 |
| 20260502063203 | 58 | 178 | 0.0 | 2.0 | 0.00 | 0.00 | 0.00 | 71 | 1024.2 |
| 20260502062701 | 56 | 153 | 1.0 | 3.0 | 0.00 | 0.00 | 0.00 | 75 | 1024.1 |
| 20260502062202 | 55 | 196 | 1.0 | 3.0 | 0.00 | 0.00 | 0.00 | 74 | 1024.0 |
| 20260502061702 | 55 | 201 | 1.0 | 3.0 | 0.00 | 0.00 | 0.00 | 75 | 1024.1 |
| 20260502061145 | 54 | 211 | 1.0 | 4.0 | 0.00 | 0.00 | 0.00 | 76 | 1024.1 |
| 20260502060923 | 54 | 175 | 1.0 | 4.0 | 0.00 | 0.00 | 0.00 | 76 | 1024.1 |
| 20260502060140 | 53 | 187 | 0.0 | 2.0 | 0.00 | 0.00 | 0.00 | 78 | 1024.0 |
| 20260502055641 | 53 | 192 | 1.0 | 2.0 | 0.00 | 0.00 | 0.00 | 79 | 1024.0 |
| 20260502055146 | 53 | 121 | 0.0 | 2.0 | 0.00 | 0.00 | 0.00 | 80 | 1024.0 |
| 20260502054632 | 51 | 109 | 0.0 | 2.0 | 0.00 | 0.00 | 0.00 | 83 | 1023.9 |
| 20260502054132 | 51 | 148 | 0.0 | 2.0 | 0.00 | 0.00 | 0.00 | 83 | 1023.8 |
| 20260502053642 | 50 | 184 | 0.0 | 2.0 | 0.00 | 0.00 | 0.00 | 84 | 1023.7 |
| 20260502053130 | 49 | 144 | 0.0 | 2.0 | 0.00 | 0.00 | 0.00 | 86 | 1023.7 |
| 20260502052629 | 47 | 140 | 0.0 | 2.0 | 0.00 | 0.00 | 0.00 | 91 | 1023.5 |
| 20260502052131 | 45 | 167 | 0.0 | 2.0 | 0.00 | 0.00 | 0.00 | 95 | 1023.4 |
| 20260502051631 | 45 | 155 | 0.0 | 2.0 | 0.00 | 0.00 | 0.00 | 96 | 1023.3 |
| 20260502051412 | 44 | 177 | 0.0 | 2.0 | 0.00 | 0.00 | 0.00 | 96 | 1023.3 |
| 20260502050631 | 44 | 165 | 0.0 | 2.0 | 0.00 | 0.00 | 0.00 | 97 | 1023.2 |
| 20260502050413 | 43 | 148 | 0.0 | 2.0 | 0.00 | 0.00 | 0.00 | 97 | 1023.2 |
| 20260502045631 | 43 | 167 | 0.0 | 2.0 | 0.00 | 0.00 | 0.00 | 98 | 1023.2 |
| 20260502045407 | 43 | 179 | 0.0 | 2.0 | 0.00 | 0.00 | 0.00 | 97 | 1023.1 |
| 20260502044633 | 43 | 182 | 0.0 | 2.0 | 0.00 | 0.00 | 0.00 | 97 | 1023.0 |
| 20260502044113 | 42 | 180 | 0.0 | 2.0 | 0.00 | 0.00 | 0.00 | 97 | 1023.0 |
| 20260502043846 | 42 | 189 | 0.0 | 2.0 | 0.00 | 0.00 | 0.00 | 96 | 1023.0 |
| 20260502043101 | 42 | 192 | 0.0 | 2.0 | 0.00 | 0.00 | 0.00 | 96 | 1023.0 |
| 20260502042601 | 42 | 192 | 0.0 | 2.0 | 0.00 | 0.00 | 0.00 | 95 | 1022.8 |
| 20260502042340 | 42 | 191 | 0.0 | 2.0 | 0.00 | 0.00 | 0.00 | 95 | 1022.8 |
| 20260502041602 | 42 | 191 | 0.0 | 2.0 | 0.00 | 0.00 | 0.00 | 95 | 1023.0 |
| 20260502041103 | 42 | 202 | 0.0 | 2.0 | 0.00 | 0.00 | 0.00 | 95 | 1022.8 |
| 20260502040543 | 42 | 202 | 0.0 | 2.0 | 0.00 | 0.00 | 0.00 | 94 | 1022.7 |
| 20260502040043 | 42 | 202 | 0.0 | 2.0 | 0.00 | 0.00 | 0.00 | 94 | 1022.7 |
| 20260502035535 | 42 | 202 | 0.0 | 1.0 | 0.00 | 0.00 | 0.00 | 94 | 1022.7 |
| 20260502035033 | 42 | 202 | 0.0 | 2.0 | 0.00 | 0.00 | 0.00 | 94 | 1022.6 |
| 20260502034532 | 42 | 206 | 0.0 | 2.0 | 0.00 | 0.00 | 0.00 | 93 | 1022.7 |
| 20260502034312 | 42 | 206 | 0.0 | 1.0 | 0.00 | 0.00 | 0.00 | 93 | 1022.7 |
| 20260502033532 | 42 | 206 | 1.0 | 1.0 | 0.00 | 0.00 | 0.00 | 92 | 1022.7 |
| 20260502033019 | 43 | 206 | 0.0 | 2.0 | 0.00 | 0.00 | 0.00 | 92 | 1022.7 |
| 20260502032510 | 43 | 206 | 0.0 | 2.0 | 0.00 | 0.00 | 0.00 | 92 | 1022.7 |
| 20260502032026 | 43 | 206 | 0.0 | 2.0 | 0.00 | 0.00 | 0.00 | 91 | 1022.7 |
| 20260502032020 | 43 | 206 | 0.0 | 2.0 | 0.00 | 0.00 | 0.00 | 92 | 1022.7 |
| 20260502030945 | 43 | 189 | 0.0 | 1.0 | 0.00 | 0.00 | 0.00 | 91 | 1022.8 |
| 20260502030718 | 43 | 189 | 0.0 | 2.0 | 0.00 | 0.00 | 0.00 | 90 | 1022.8 |
| 20260502025943 | 43 | 189 | 0.0 | 2.0 | 0.00 | 0.00 | 0.00 | 90 | 1022.8 |
| 20260502025439 | 43 | 189 | 0.0 | 2.0 | 0.00 | 0.00 | 0.00 | 90 | 1023.0 |
| 20260502024934 | 43 | 206 | 0.0 | 2.0 | 0.00 | 0.00 | 0.00 | 90 | 1023.0 |
| 20260502024431 | 43 | 206 | 0.0 | 2.0 | 0.00 | 0.00 | 0.00 | 90 | 1023.0 |
| 20260502023931 | 44 | 194 | 0.0 | 0.0 | 0.00 | 0.00 | 0.00 | 89 | 1023.1 |
| 20260502023429 | 44 | 194 | 0.0 | 2.0 | 0.00 | 0.00 | 0.00 | 89 | 1023.0 |
| 20260502022934 | 44 | 194 | 0.0 | 2.0 | 0.00 | 0.00 | 0.00 | 89 | 1023.0 |
| 20260502022422 | 44 | 194 | 0.0 | 2.0 | 0.00 | 0.00 | 0.00 | 89 | 1023.1 |
| 20260502021923 | 44 | 196 | 0.0 | 2.0 | 0.00 | 0.00 | 0.00 | 89 | 1023.1 |
| 20260502021419 | 44 | 197 | 0.0 | 1.0 | 0.00 | 0.00 | 0.00 | 89 | 1023.2 |
| 20260502020921 | 44 | 199 | 0.0 | 2.0 | 0.00 | 0.00 | 0.00 | 89 | 1023.3 |
| 20260502020414 | 44 | 200 | 1.0 | 2.0 | 0.00 | 0.00 | 0.00 | 89 | 1023.3 |
| 20260502015911 | 44 | 200 | 1.0 | 2.0 | 0.00 | 0.00 | 0.00 | 88 | 1023.4 |
| 20260502015408 | 44 | 199 | 0.0 | 2.0 | 0.00 | 0.00 | 0.00 | 88 | 1023.4 |
| 20260502014907 | 44 | 199 | 0.0 | 2.0 | 0.00 | 0.00 | 0.00 | 87 | 1023.3 |
| 20260502014402 | 45 | 198 | 1.0 | 2.0 | 0.00 | 0.00 | 0.00 | 87 | 1023.4 |
| 20260502013901 | 45 | 199 | 1.0 | 2.0 | 0.00 | 0.00 | 0.00 | 87 | 1023.4 |
| 20260502013402 | 45 | 191 | 0.0 | 2.0 | 0.00 | 0.00 | 0.00 | 87 | 1023.4 |
| 20260502013134 | 45 | 109 | 0.0 | 2.0 | 0.00 | 0.00 | 0.00 | 87 | 1023.4 |
| 20260502012352 | 45 | 96 | 0.0 | 2.0 | 0.00 | 0.00 | 0.00 | 87 | 1023.4 |
| 20260502011844 | 45 | 96 | 0.0 | 2.0 | 0.00 | 0.00 | 0.00 | 87 | 1023.4 |
| 20260502011357 | 45 | 71 | 0.0 | 2.0 | 0.00 | 0.00 | 0.00 | 86 | 1023.5 |
| 20260502011351 | 45 | 88 | 0.0 | 2.0 | 0.00 | 0.00 | 0.00 | 87 | 1023.5 |
| 20260502010405 | 46 | 323 | 0.0 | 2.0 | 0.00 | 0.00 | 0.00 | 86 | 1023.6 |
| 20260502010357 | 45 | 323 | 0.0 | 0.0 | 0.00 | 0.00 | 0.00 | 86 | 1023.6 |
| 20260502005331 | 46 | 323 | 0.0 | 2.0 | 0.00 | 0.00 | 0.00 | 85 | 1023.6 |
| 20260502005106 | 46 | 325 | 0.0 | 2.0 | 0.00 | 0.00 | 0.00 | 85 | 1023.7 |